STARLINK-11167, 60061

Orbit data source: Space-Track

STARLINK-11167, 60061 is a payload satellite owned by SpaceX/Seattle (US) in LEO that was launched on Wed, 19 Jun 2024 UTC via an FALCON 9 launch vehicle from the Air Force Western Test Range (AFWTR). Payload-class satellites include a variety of spacecraft equipped with specific instruments for various scientific and technological missions. These include communications satellites like Starlink; space stations such as the ISS; scientific satellites like the Hubble; Earth observation satellites from companies like Planet Labs, Umbra, and HawkEye 360; GPS; miniature CubeSats for education and research; and military/defense satellites.

Loading next visibility...
Identifier
60061, 2024-113C
Orbit
LEO
Last TLE update
20 hours ago
Origin
Manufacturer
SpaceX/Seattle
Mission
Operational Commercial Communications
Bus & Motor
STARLINK V2M, Unknown motor
Mass
730 kg wet, ~700 kg dry
Launch date (UTC)
2024-06-19 (11 months ago)
Launch vehicle
FALCON 9
Launch site
Air Force Western Test Range (AFWTR)
Object type
Payload
Rocket body
Debris
Shape & HBR
Box + 2 Pan, 29 m
Radar Cross Section
36.964 m², Large (>1 m²)

Expand to show TLE details & history

TLE from 20 hours ago
0 STARLINK-11167
1 60061U 24113C   25131.02276884  .00057674  00000-0  47862-3 0  9992
2 60061  53.1579 243.2708 0000988  91.5045 268.6086 15.69658305 52348
Epoch: 2025-05-11T00:32Z
Definitive object data (Epoch: 2025-05-11T00:32:47.227Z)
Latitude
-0.00004°
Longitude
6.01782°
Altitude
360.806 km
Speed
7.694 km/s
True Right ascension
16h 13m 04s
True Declination
0° 00' 00"
Sunlit
Object was in full shadow at TLE epoch
Visualization TLE readout
Latitude
-0.1218°
Longitude
1.84563°
Altitude
360.579 km
Speed
7.694 km/s
Apparent Right ascension
16h 16m 16s
Apparent Declination
-19° 26' 09"
Sunlit
Object is in full shadow
Visualization observer readout
Local Sidereal Time
04:43:39
Azimuth
18.016° NNE
Elevation
-68.692°
Doppler factor
1
Orbital elements
Apogee altitude
360.801 km
Perigee altitude
359.47 km
Semi-major axis
6,738.273 km
Eccentricity
0.0000988
Inclination
53.1579°
RAAN
243.2708°
Arg. of periapsis
91.5045°
True anomaly
268.59728°
Mean anomaly
268.6086°
Eccentric anomaly
268.60294°
Mean motion
3.92392 °/min
BSTAR
0.00047862
Orbital period
91.74 mins
Loading maneuver chart data...
Loading SW <> Apogee altitude chart data...
Loading historical data...
Loading historical data...
Loading historical data...
Loading historical data...
Loading historical data...
Loading historical data...
Loading historical data...

STARLINK-11167 Visibility forecast

Observer location: undefined°, undefined°

Span
Click to sort rows by Start time (UTC) header in descending order
Start Az.
Max El. time (UTC)
Max El. Az.
Max El.
End time (UTC)
End Az.
4 mins2025-05-12 10:22:38.304Z258.509° W2025-05-12 10:24:38.304Z347.644° N34.225°2025-05-12 10:26:38.304Z36.125° NE
4 mins2025-05-12 16:47:38.304Z302.877° NW2025-05-12 16:48:38.304Z280.822° WNW41.984°2025-05-12 16:51:38.304Z136.108° SSE
|